Tracking 28790 objects as of 19-Apr-2024
HD Live streaming from Space Station
objects crossing your sky now

COSMOS 2251 DEB

Track COSMOS 2251 DEB now!
10-day predictions


NORAD ID: 37316
Int'l Code: 1993-036BKG
Perigee: 649.4 km
Apogee: 734.1 km
Inclination: 74.0 °
Period: 98.5 minutes
Semi major axis: 7062 km
RCS: 0.0019 m2 (small)
Launch date: June 16, 1993
Source: Commonwealth of Independent States (former USSR) (CIS)
Launch site: PLESETSK MISSILE AND SPACE COMPLEX (PKMTR)

Note: This is SATELLITE DEBRIS
Your satellite tracking list
Your tracking list is empty




NASA's NSSDC Master Catalog

Two Line Element Set (TLE):
1 37316U 93036BKG 24109.46604275  .00021255  00000-0  40651-2 0  9994
2 37316  74.0320 126.6631 0059978 353.2313   6.8036 14.62651924772303
Source of the keplerian elements: AFSPC